Погода в Вилюйске

Погода в Вилюйске : погода сейчас, прогноз погоды и архив. Всё, что Вы хотите узнать о погоде в Вилюйске!

Хотите узнать прогноз погоды в Вилюйске? Тогда Вам сюда: Погода в Вилюйске

Поиск расширенной информации на нашем сайте:

Другие новости

Новости СМИ2

Главная страница сайта

Новости сайта

03.07.2017

Напоминаем, что на нашем специализированном сайте Метеоцентр.Азия вы можете получить высокодетализированные автоматические прогнозы погоды по пунктам России, СНГ и мира в авиационном формате (включающие направление и скорость ветра, видимость, явления погоды, количество и форму облачности, нижнюю и верхнюю границу облачности).

Рекомендуем: Одежда и обувь Adidas: адидас дисконт каталог. Купить Фирменные товары adidas.

Погода в Вилюйске - сегодня

Время (UTC), дата Ветер
(°,м/с) 
Видим.   Явления Облачность Т
(°С)
Тd
(°С)
f(%) Тe
(°С)
Pmin
(гПа)
dP
(гПа)
Po
(мм)
O2
(г/м3)
Тmin Tmax R s Состояние
почвы
21 19.09.17 270 (З) 20000 м  слаб. ливневой дождь  10/8 600 м кучево-дожд., средняя 
[Cb calv|As trans]
+1.8 -0.4 85 +1  1011.8  -0.9  748  300           
00 20.09.17 260 (З) 20000 м  слаб. ливневой дождь со снегом  10/10 600 м кучево-дожд. 
[Cb calv]
+1.2 +0.4 94 +2  1011.7  -0.1  748  300  +1.1      мокрая 
03 20.09.17 270 (З) 20000 м  слаб. ливневой дождь  10/10 600 м кучево-дожд. 
[Cb calv]
+2.4 +1.6 94 +1  1010.7  -0.9  748  298           
06 20.09.17 290 (З) 20000 м  в посл. час ливневой дождь  10/10 600 м кучево-дожд. 
[Cb calv]
+2.7 +1.4 91 +1  1010.4  -0.3  747  298           
09 20.09.17 270 (З) 20000 м    10/4 600 м кучево-дожд., средняя 
[Cb calv|As op]
+2.5 +0.6 87 +2  1010.3  -0.1  747  298           
12 20.09.17 тихо ()   20000 м    10/3 600 м средняя, верхняя 
[Sc|Ac trans|Ci fib]
+1.8 -0.1 87 +2  1010.8  0.5  748  299    +3.3     
15 20.09.17 210 (ЮЗ) 20000 м    10/0 средняя, верхняя 
[Ac trans|Ci fib]
-0.8 -2 92 1010.8  -0.2  748  302           
18 20.09.17 180 (Ю) 20000 м    10/5 600 м средняя 
[Sc|Ac trans]
+0.1 -1 92 -1  1010.2  -0.5  747  301           
21 20.09.17 250 (З) 20000 м    9/0 средняя 
[Ac trans]
-0.1 -1.6 90 +1  1009.7  -0.5  747  301           
00 21.09.17 260 (З) 20000 м    9/0 средняя 
[Ac trans]
-0.5 -2.6 86 -1  1010.1  0.4  747  302          влажная 
03 21.09.17 260 (З) 20000 м    6/0 средняя, верхняя 
[Ac trans|Ci fib]
+5.3 -0.8 65 +6  1009.9  747  295           
06 21.09.17 300 (СЗ) 20000 м    9/5 600 м средняя, верхняя 
[Sc|Ac trans|Ci fib]
+7.1 -2.2 52 +7  1009.8  747  294           
09 21.09.17 260 (З) 20000 м    10/4 600 м средняя, верхняя 
[Sc|Ac trans|Ci fib]
+7 -2.5 51 +7  1009.7  -0.1  747  294           
12 21.09.17 210 (ЮЗ) 20000 м    10/5 600 м средняя 
[Sc|Ac trans]
+5.1 -2.4 58 +6  1011  1.2  748  296    +8.6       
15 21.09.17 210 (ЮЗ) 20000 м    9/5 600 м средняя 
[Sc|Ac trans]
+3.1 -2.3 68 +4  1011.6  0.5  748  298           
18 21.09.17 210 (ЮЗ) 20000 м    8/5 600 м средняя 
[Sc|Ac trans]
+1.6 -2.5 74 +2  1012.1  0.4  749  300           
21 21.09.17 190 (Ю) 20000 м    8/8 600 м 
[Sc]
-0.6 -2.7 86 1013  0.8  749  303           
00 22.09.17 050 (СВ) 20000 м    9/9 600 м 
[Sc]
+0.4 -1.9 85 +1  1013.6  0.7  750  302  -1.2        влажная 
03 22.09.17 010 (С) 20000 м    9/8 600 м средняя 
[Sc|Ac trans]
+4.6 -1.1 66 +5  1013.7  0.3  750  297           
06 22.09.17 050 (СВ) 20000 м    10/5 600 м средняя, верхняя 
[Sc|Ac trans|Ci fib]
+9 -1.7 47 +9  1012.5  -1  749  292           
09 22.09.17 070 (В) 20000 м    10/4 600 м средняя, верхняя 
[Sc|Ac trans|Ci fib]
+7.4 -2.7 49 +7  1012.6  749  294           
12 22.09.17 090 (В) 20000 м    10/0 средняя, верхняя 
[Ac trans|Ci fib]
+5.2 -0.7 66 +4  1012.7  749  296    +9.6       
15 22.09.17 070 (В) 20000 м    10/0 средняя, верхняя 
[Ac trans|Ci fib]
+3.9 -1.3 69 +3  1012.4  -0.3  749  298           
18 22.09.17 080 (В) 20000 м    10/0 верхняя 
[Ci fib]
+2.7 -2.5 69 +1  1011.1  -1.4  748  299           
21 22.09.17 080 (В) 20000 м    10/0 средняя, верхняя 
[Ac trans|Ci fib]
+1.5 -2.6 74 -1  1009.4  -1.7  747  300           
Время (UTC), дата Ветер
(°,м/с) 
Видим.   Явления Облачность Т
(°С)
Тd
(°С)
f(%) Тe
(°С)
Pmin
(гПа)
dP
(гПа)
Po
(мм)
O2
(г/м3)
Тmin Tmax R s Состояние
почвы

Для получения пояснительной информации подведите курсор к названию столбца.

ПОГОДА в Вилюйске - архив

Всё, что Вы хотите узнать о погоде в Вилюйске - удобно и подробно!

Выберите нужную дату (начиная с 1 января 2015* года) и нажмите кнопку "Найти".
Будут отображены архивные сводки погоды по пункту Вилюйск, начиная с указанной даты.


Отображать данные в формате CSV (для использования в таблицах Excel)


Внимание! Наш архив погоды предназначен исключительно для личного некоммерческого использования в познавательных целях. Если Вам необходимы официальные справки о состоянии погоды (для производственных, юридических, коммерческих и т.п. целей), обращайтесь в органы Росгидромета.

*Примечание: данная дата относится к архиву по метеостанциям СССР (Россия, СНГ, Балтия).
Архив по метеостанциям Зарубежной Европы и Азии (кроме Китая) хранится 10 дней, по другим регионам земного шара (Китай, Африка, Америка, Австралия, Океания) - 1 день.

Вилюйск - район местоположения метеостанции


Название, широта, долгота, высота метеостанции:
Вилюйск 63.8°ш. 121.6°д. 111 м над ур. моря [Российская Федерация]

Дополнительная информация

В oтличие oт бoльшинства пoгoдных сайтoв мы публикуем пoдрoбную метеoинфoрмацию в детальнoм прoфессиoнальнoм фoрмате.

Характеристики температуры и влажнoсти вoздуха измеряются на высoте 2 м в тени вдали oт зданий и деревьев.
Скoрoсть ветра измеряется на высoте 10 м (на урoвне рoста челoвека скoрoсть ветра ниже в 1.5-2 раза). Если метеoстанция нахoдится в гoрoде или в лесу, тo скoрoсть ветра занижена на 2-4 м/с пo сравнению с oткрытым местoм. Скoрoсть ветра над акватoриями крупных рек и oзёр, а также на вершинах хoлмoв на 2-5 м/с выше, чем в oбычных услoвиях.
Атмoсфернoе давление в разных тoчках местнoсти мoжет значительнo oтличаться oт давления на метеoстанции, в зависимoсти oт услoвий рельефа (при пoдъёме на 10 м давление пoнижается примернo на 1 мм рт.ст.).